FW0639 Weather Reports


time (UTC)temp
C
wind
direction
speed
KPH
gust
KPH
rain 1hr
cm
rain 24hr
cm
rain mn
cm
humidity
%
barometer
mb
20260504050132 7 37 1.6 3.2 0.00 0.00 0.00 59 1005.6
20260504045058 8 35 0.0 0.0 0.00 0.00 0.00 59 1005.5
20260504044035 8 32 0.0 1.6 0.00 0.00 0.00 58 1005.5
20260504043010 8 29 0.0 3.2 0.00 0.00 0.00 60 1005.5
20260504041954 8 26 0.0 0.0 0.00 0.00 0.00 57 1005.5
20260504041014 8 22 1.6 3.2 0.00 0.00 0.00 57 1005.3
20260504034902 10 10 1.6 3.2 0.00 0.00 0.00 54 1005.4
20260504032741 11 1 0.0 3.2 0.00 0.00 0.00 47 1005.3
20260504031746 12 359 0.0 3.2 0.00 0.00 0.00 44 1005.2
20260504030739 13 351 0.0 3.2 0.00 0.00 0.00 41 1005.1
20260504025715 15 355 0.0 0.0 0.00 0.00 0.00 38 1005.1
20260504024644 15 351 0.0 0.0 0.00 0.00 0.00 38 1005.0
20260504023654 16 347 0.0 0.0 0.00 0.00 0.00 32 1004.8
20260504022640 17 345 0.0 0.0 0.00 0.00 0.00 31 1004.8
20260504021608 17 345 1.6 6.4 0.00 0.00 0.00 30 1004.8
20260504020540 18 343 1.6 4.8 0.00 0.00 0.00 29 1004.8
20260504015539 18 342 0.0 1.6 0.00 0.00 0.00 30 1004.7
20260504014526 19 339 0.0 0.0 0.00 0.00 0.00 29 1004.8
20260504013533 19 340 1.6 16.1 0.00 0.00 0.00 26 1004.8
20260504012518 20 353 1.6 8.0 0.00 0.00 0.00 26 1004.8
20260504010321 21 33 3.2 19.3 0.00 0.00 0.00 26 1004.9
20260504005301 21 41 3.2 17.7 0.00 0.00 0.00 26 1004.9
20260504004243 21 70 3.2 14.5 0.00 0.00 0.00 27 1004.9
20260504003248 22 101 4.8 14.5 0.00 0.00 0.00 26 1005.0
20260504002255 22 93 3.2 20.9 0.00 0.00 0.00 26 1005.1
20260504000127 22 113 3.2 20.9 0.00 0.00 0.00 28 1005.1
20260503235126 22 107 4.8 20.9 0.00 0.00 0.00 27 1005.2
20260503232944 22 95 6.4 25.7 0.00 0.00 0.00 26 1005.3
20260503231925 22 91 4.8 25.7 0.00 0.00 0.00 25 1005.3
20260503230912 22 115 4.8 17.7 0.00 0.00 0.00 25 1005.4
20260503224828 22 68 4.8 17.7 0.00 0.00 0.00 24 1005.7
20260503223810 22 54 4.8 17.7 0.00 0.00 0.00 25 1005.9
20260503222824 22 210 3.2 12.9 0.00 0.00 0.00 25 1006.0
20260503221801 22 45 3.2 17.7 0.00 0.00 0.00 27 1006.3
20260503220755 22 27 4.8 20.9 0.00 0.00 0.00 27 1006.4
20260503215810 22 56 4.8 20.9 0.00 0.00 0.00 27 1006.4
20260503214747 22 73 4.8 17.7 0.00 0.00 0.00 25 1006.7
20260503213727 22 59 3.2 12.9 0.00 0.00 0.00 27 1006.8
20260503212747 22 72 4.8 16.1 0.00 0.00 0.00 25 1007.0
20260503211716 22 49 3.2 24.1 0.00 0.00 0.00 27 1007.1
20260503210731 22 45 9.7 24.1 0.00 0.00 0.00 26 1007.4
20260503205704 22 49 4.8 17.7 0.00 0.00 0.00 25 1007.5
20260503204653 22 34 4.8 14.5 0.00 0.00 0.00 25 1007.7
20260503203638 22 28 4.8 19.3 0.00 0.00 0.00 26 1008.0
20260503202642 22 43 4.8 22.5 0.00 0.00 0.00 26 1008.0
20260503201649 21 32 6.4 22.5 0.00 0.00 0.00 25 1008.2
20260503200619 21 28 6.4 22.5 0.00 0.00 0.00 24 1008.2
20260503195548 21 31 9.7 27.4 0.00 0.00 0.00 25 1008.3
20260503194524 21 7 6.4 27.4 0.00 0.00 0.00 25 1008.4
20260503193511 21 31 4.8 17.7 0.00 0.00 0.00 24 1008.7
20260503192459 21 28 6.4 20.9 0.00 0.00 0.00 24 1009.0
20260503191444 21 20 6.4 20.9 0.00 0.00 0.00 28 1009.4
20260503190446 21 18 3.2 12.9 0.00 0.00 0.00 27 1009.5
20260503185448 21 12 4.8 17.7 0.00 0.00 0.00 26 1009.5
20260503183335 21 72 3.2 16.1 0.00 0.00 0.00 27 1009.8
20260503180022 20 226 1.6 11.3 0.00 0.00 0.00 36 1010.4
20260503175045 19 226 3.2 11.3 0.00 0.00 0.00 35 1010.5
20260503174029 19 181 1.6 14.5 0.00 0.00 0.00 36 1010.7
20260503173044 18 224 3.2 14.5 0.00 0.00 0.00 36 1010.9
20260503172020 18 221 3.2 14.5 0.00 0.00 0.00 35 1011.0
20260503171028 18 221 3.2 14.5 0.00 0.00 0.00 35 1011.2
20260503160103 16 27 1.6 12.9 0.00 0.00 0.00 51 1011.9
20260503150120 10 91 0.0 1.6 0.00 0.00 0.00 77 1012.5
20260503130803 3 61 0.0 0.0 0.00 0.00 0.00 90 1013.2
20260503110411 3 235 0.0 0.0 0.00 0.00 0.00 88 1013.7
20260503080941 8 28 1.6 8.0 0.00 0.00 0.00 78 1014.8